If you wish to contribute or participate in the discussions about articles you are invited to join SKYbrary as a registered user

LA/Ontario Airport

From SKYbrary Wiki
KONT
Airport
ICAO: KONT
Summary
Name LA/Ontario Airport
Region North America
Territory United States US.gif
Location Ontario, California
Serving
Coordinates 34° 3' 39.078", -117° 35' 53.8044"
Runways
Designator Length Width Surface ROPS
08L/26R 3718 m12,198.163 ft 46 m150.919 ft PEM yes/yes
08R/26L 3109 m10,200.131 ft 46 m150.919 ft CON yes/yes
METAR
Observation KONT 180353Z 23005KT 10SM FEW200 SCT250 17/14 A3007 RMK AO2 SLP174 T01670139 $
Station Ontario, Ontario International Airport
Date/Time 18 November 2017 03:53:00
Wind direction 230°
Wind speed 05 kts
Lowest cloud amount few clouds
Temperature 16.7°C
Dew point 13.9°C
Humidity 83%
QNH hPa
Weather condition n/a

BS
Tag(s) Bird Strike
WX
Tag(s) Fog

Ontario International Airport

ICAO: KONT IATA: ONT

Description

International airport 20 nm east of the city of Los Angeles.

Climatology

Mediterranean climate or Dry-Summer Subtropical (Köppen climate classification Csa) - Summers are warm to hot and dry. Winters are mild and somewhat rainy. Spring and autumn bring mild days with cool evenings and are generally dry.

Maps

Terrain

Loading map...

Airport Layout

Loading map...



Accidents & Serious Incidents at or in vicinity of KONT

None on SKYbrary